www.pogodaiklimat.ru

Погода и климат >> Архив погоды >> Китай >> Гуанси-Чжуанский автономный район >> Юйлинь


ПОГОДА в Юйлине

  • Прогноз погоды в Юйлине
  • Монитор погоды в Юйлине

АРХИВ ПОГОДЫ в Юйлине

Время (UTC), дата Ветер
(напр.,м/с)
 
Видим.   Явления Облачность Т
(С)
Тd
(С)
f
(%)
Тe
(С)
Тes
(С)
Комфортность P
(гПа)
Po
(гПа)
Тmin
(С)
Tmax
(С)
R
(мм)
R24
(мм)
S
(см)
03 20.05 С 3 30 км ясно +14.9 -16.5 10 +15 +29 опасность
простуды
1021.1 900.6
06 20.05 ЮЗ 2 30 км ясно +18.4 -18.1 7 +19 +37 опасность
простуды
1017.9 887.1 +2.2
09 20.05 З 3 30 км ясно +20.5 -18.3 6 +20 +25 1015.0 897.4
12 20.05 З 2 30 км 9/9
[]
+16.7 -16.3 9 +17 +17 1014.4 884.1
15 20.05 В 1 30 км н/о +13.6 -12.5 15 +14 +14 1014.0 893.9
18 20.05 штиль 0 30 км ?/? +10.1 -3.6 38 +10 +10 1013.5 884.3 +20.8
21 20.05 З 1 30 км н/о +7.4 -0.8 56 +7 +7 1013.3 890.8
00 21.05 З 1 30 км 3/3
[]
+11.6 -5.4 30 +12 +16 1014.4 885.1
03 21.05 СЗ 2 30 км ясно +21.7 -11.2 10 +20 +37 опасность
простуды
1012.2 895.4
06 21.05 З 2 30 км 9/9
[]
+25.4 -17.0 5 +22 +24 комфорт 1009.9 882.6 +7.0
09 21.05 З 5 30 км 6/6
[]
+26.5 -18.8 4 +23 +24 комфорт 1008.2 893.6
12 21.05 СЗ 1 30 км ясно +23.1 -16.4 6 +20 +20 1008.2 881.0
15 21.05 СЗ 4 30 км н/о +18.8 -12.3 11 +19 +19 1008.0 890.6
18 21.05 С 2 30 км ?/? +15.4 -8.8 18 +16 +16 1007.6 881.7 +26.9
21 21.05 З 1 30 км н/о +10.2 -5.0 34 +10 +10 1009.2 888.3
00 22.05 З 2 30 км ясно +15.0 -6.0 23 +15 +20 1010.1 883.3
03 22.05 ЮЗ 4 30 км ясно +25.3 -11.3 8 +22 +34 комфорт 1008.1 893.1
06 22.05 Ю 3 30 км ясно +28.3 -14.9 5 +24 +40 комфорт 1006.4 881.2 +10.0
09 22.05 СЗ 5 30 км ясно +29.7 -16.6 4 +25 +29 комфорт 1005.3 892.2
12 22.05 Ю 2 30 км ясно +25.7 -16.8 5 +22 +22 комфорт 1005.0 879.4
15 22.05 Ю 3 30 км н/о +21.9 -12.4 9 +20 +20 1005.0 889.1
18 22.05 Ю 3 30 км ?/? +19.4 -13.0 10 +19 +19 1004.9 880.7 +30.0
21 22.05 В 2 30 км н/о +16.0 -10.6 15 +16 +16 1005.3 887.1
00 23.05 В 1 30 км 6/6
[]
+20.9 -5.8 16 +21 +24 комфорт 1006.2 881.6
03 23.05 Ю 5 30 км 10/10
[]
+27.3 -5.7 11 +24 +24 комфорт 1005.3 891.3
06 23.05 Ю 4 30 км 10/10
[]
+29.4 -11.9 6 +25 +25 комфорт 1002.8 879.0 +15.3
09 23.05 Ю 7 30 км 10/10
[]
+28.7 -14.6 5 +25 +25 комфорт 1002.1 889.0
12 23.05 ЮВ 2 30 км 9/9
[]
+25.1 -6.3 12 +23 +23 комфорт 1001.7 877.5
15 23.05 В 2 30 км н/о +22.0 -9.8 11 +20 +20 1001.6 886.1
18 23.05 В 3 30 км ?/? +20.9 -7.6 14 +21 +21 комфорт 1000.4 877.2 +30.4
21 23.05 В 3 30 км н/о +20.1 -6.5 16 +20 +20 999.8 883.8
00 24.05 ЮВ 4 30 км 9/9
[]
+22.4 -2.3 19 +21 +22 комфорт 1000.6 876.9
03 24.05 Ю 4 30 км 1/1
[]
+27.3 +1.7 19 +25 +36 комфорт 999.4 886.1
06 24.05 Ю 2 30 км 3/3 600 м
[]
+29.0 -0.2 15 +26 +39 жарко 997.7 874.8 +19.8
09 24.05 З 1 30 км 3/3 600 м
[]
+30.5 -3.3 11 +27 +32 жарко 996.1 884.3
12 24.05 ЮВ 2 30 км 9/9 1000 м
[]
+27.1 0.0 17 +25 +25 комфорт 997.1 874.2
15 24.05 Ю 3 30 км н/о +22.7 +2.8 27 +22 +22 комфорт 998.2 883.4
18 24.05 Ю 2 30 км ?/? +20.1 +5.4 38 +21 +21 комфорт 998.0 874.9 +30.6
21 24.05 В 3 30 км н/о +17.2 +6.1 48 +17 +17 997.9 881.1
00 25.05 ЮВ 3 30 км 5/5
[]
+20.7 +7.3 42 +22 +24 комфорт 999.3 875.8
03 25.05 ЮВ 2 30 км 9/9
[]
+27.6 +6.9 27 +27 +29 жарко 999.2 886.0
06 25.05 ЮЗ 3 30 км 9/9 600 м
[]
+30.8 +3.0 17 +28 +30 жарко 997.2 874.5 +16.7
09 25.05 Ю 1 30 км 10/10 600 м
[]
+31.4 -3.9 10 +28 +28 жарко 996.5 884.9
12 25.05 СЗ 4 30 км 9/9 1000 м
[]
+26.4 -3.2 14 +24 +24 комфорт 998.3 874.8
15 25.05 С 5 30 км н/о +20.5 -3.2 20 +20 +20 1001.3 885.3
18 25.05 С 5 30 км ?/? +18.9 -3.3 22 +19 +19 1002.0 878.5 +32.1
21 25.05 С 2 30 км н/о +15.9 -2.1 29 +16 +16 1004.1 886.0
00 26.05 СЗ 5 30 км ясно +17.7 -4.9 21 +17 +20 1007.1 881.9
03 26.05 СЗ 8 26 км ясно +19.8 -14.0 9 +19 +22 1009.3 892.1
06 26.05 СЗ 6
{17}
30 км 8/8 600 м
[]
+17.7 -2.0 26 +17 +19 1011.6 884.3 +15.2
09 26.05 СЗ 7
{17}
27 км 9/9
[]
+18.8 -2.8 23 +18 +18 1011.7 893.9
12 26.05 С 5
{17}
30 км 9/9
[]
+15.7 -1.4 31 +15 +15 1014.1 885.9
15 26.05 С 4 30 км н/о +13.3 -1.8 35 +12 +12 1017.1 896.5
18 26.05 СЗ 2 30 км ?/? +11.0 -1.4 42 +10 +10 1019.5 889.6 +20.3
21 26.05 С 2 30 км н/о +8.8 -0.5 52 +7 +7 1021.0 898.1
00 27.05 С 2 30 км 10/10
[]
+11.7 +0.5 46 +11 +11 1023.0 892.4

 

Местоположение метеостанции Юйлинь (Гуанси-Чжуанский автономный район, Китай): широта 38.23 долгота 109.70 высота над уровнем моря 1058 м.

В архиве по умолчанию представлена погода в Юйлине за последнюю неделю. Архивные данные за месяц целиком и за предыдущие месяцы, начиная с января 2011 года, Вы можете получить, выбрав интересующий диапазон дат из раскрывающегося списка и нажав кнопку "Ввод!".


*Определитесь, кто Вы:
робот инопланетянин человек

Внимание! Время в таблицах - всемирное. Для получения местного времени необходимо прибавить поправку, которая равна 8 ч.

Смотрите также архив погоды в соседних городах и на ближайших метеорологических станциях:

Погода в Лиши (Шаньси, Китай) (147 км)
Погода в Отог-Ци (Внутренняя Монголия, Китай) (178 км)
Погода в Хэцюе (Шаньси, Китай) (179 км)
Погода в Дуншэне (Внутренняя Монголия, Китай) (180 км)
Погода в Яньане (Шэньси, Китай) (182 км)
Погода в Яньчи (Нинся-Хуэйский автономный район, Китай) (209 км)
Погода в Цзесю (Шаньси, Китай) (236 км)
Погода в Тайюанье (Шаньси, Китай) (255 км)
Погода в Юаньпине (Шаньси, Китай) (267 км)
Погода в Иньчуане (Нинся-Хуэйский автономный район, Китай) (306 км)

Пояснения к столбцам:

Ветер - указаны скорость ветра в м/с - средняя за 10 мин, порывы в срок и между сроками (в фигурных скобках) и направление, откуда дует ветер: С - северный, СВ - северо-восточный, В - восточный, ЮВ - юго-восточный, Ю - южный, ЮЗ - юго-западный, З - западный, СЗ - северо-западный.
Видимость - горизонтальная дальность видимости в метрах или километрах. При видимости от 1 до 10 км при отсутствии осадков обычно наблюдается дымка, при ухудшении видимости до 1 км и менее - туман. В сухую погоду видимость может ухудшаться дымом, пылью или мглою.
Явления - указаны атмосферные явления, наблюдавшиеся в срок или в последний час перед сроком; фигурными скобками обозначены явления, наблюдавшиеся между сроками (за 1-3 часа до срока); квадратными скобками обозначены град или гололедные отложения с указанием их диаметра в мм.
Облачность - указаны через наклонную черту общая и нижняя облачность в баллах и высота нижней границы облаков в метрах; квадратными скобками обозначены формы облаков: Ci - перистые, Cs - перисто-слоистые, Cc - перисто-кучевые, Ac - высококучевые, As - высокослоистые, Sc - слоисто-кучевые, Ns - слоисто-дождевые, Cu - кучевые, Cb - кучево-дождевые. Подробнее классификацию облаков см. в Атласе облаков (PDF).
T - Температура воздуха - температура, измеренная на высоте 2 м над землей.
Td - Температура точки росы - температура, при понижении до которой содержащийся в воздухе водяной пар достигнет насыщения.
f - Относительная влажность воздуха - влажноcть воздуха, измеренная на высоте 2 м над землей.
Te - Эффективная температура - температура, которую ощущает одетый по сезону человек в тени. Характеристика душности погоды. При расчете учитывается влияние влажности воздуха и скорости ветра на теплоощущения человека.
Tes - Эффективная температура на солнце - температура, которую ощущает человек, с поправкой на солнечный нагрев. Характеристика знойности погоды. Зависит от высоты солнца над горизонтом, облачности и скорости ветра. Ночью, в пасмурную погоду, а также при ветре 12 м/с и более поправка равна нулю.
P - Атмосферное давление - приведенное к уровню моря атмосферное давление.
Po - Атмосферное давление - измеренное на уровне метеостанции атмосферное давление.
Tmin - Минимальная температура - минимум температуры воздуха на высоте 2 м над землей.
Tmax - Максимальная температура - максимум температуры воздуха на высоте 2 м над землей.
R - Количество осадков - Количество выпавших осадков за период времени, мм. При наведении курсора мыши на число - период времени, за который выпало указанное количество осадков.
R24 - Количество осадков - Количество выпавших осадков за 24 часа, мм.
S - Снежный покров - Высота снежного покрова, см. При наведении курсора мыши на число - состояние снежного покрова и степень покрытия местности в баллах.